Regional Weather Roundup
Issued by NWS Little Rock, AR

Home | Current Version | Previous Version | Graphics & Text | Print | Product List | Glossary On
Versions: 1 2 3 4 5 6 7 8 9 10 11 12 13 14 15 16 17 18 19 20 21 22 23 24 25 26 27 28 29 30 31 32 33 34 35 36 37 38 39 40 41 42 43 44 45 46 47 48 49 50
000
ASUS44 KLZK 012305
RWRLZK

WEATHER ROUNDUP FOR ARKANSAS
NATIONAL WEATHER SERVICE LITTLE ROCK AR
600 PM CDT TUE SEP 01 2015

NOTE: "FAIR" INDICATES FEW OR NO CLOUDS BELOW 12,000 FEET WITH NO
SIGNIFICANT WEATHER AND/OR OBSTRUCTIONS TO VISIBILITY.

ARZ001-003-010-029-020000-
NORTHWEST ARKANSAS

CITY           SKY/WX    TMP DP  RH WIND       PRES   REMARKS
FAYETTEVILLE   SUNNY     84  68  58 S7        30.06S HX  87
FORT SMITH     MOSUNNY   91  58  32 S7        29.99F HX  90
HARRISON       MOSUNNY   85  65  51 S6        30.07S HX  86
BENTONVILLE    SUNNY     88  61  40 SW9       30.07S HX  88
ROGERS         SUNNY     84  66  54 S8        30.07S HX  86
SILOAM SPGS    SUNNY     86  64  48 S10       30.04S HX  87
HIGHFILL       SUNNY     86  66  51 S8        30.05F HX  88
SPRINGDALE     MOSUNNY   84  64  51 S12       30.08S HX  86
$$

ARZ004-005-016-020000-
NORTH CENTRAL ARKANSAS

CITY           SKY/WX    TMP DP  RH WIND       PRES   REMARKS
BATESVILLE     PTSUNNY   86  70  58 E5        30.04F HX  90
FLIPPIN        MOSUNNY   88  66  48 E6        30.03S HX  90
MTN HOME       MOSUNNY   85  70  60 SE7       30.04F HX  89
$$

ARZ040-041-020000-
WEST CENTRAL ARKANSAS

CITY           SKY/WX    TMP DP  RH WIND       PRES   REMARKS
MENA           SUNNY     90  64  43 S5        30.05S HX  91
MOUNT IDA      MOSUNNY   89  65  44 VRB6      30.03S HX  91
$$

ARZ009-017-025-026-028-020000-
NORTHEAST ARKANSAS

CITY           SKY/WX    TMP DP  RH WIND       PRES   REMARKS
JONESBORO      PTSUNNY   86  69  56 SE6       30.05S HX  90
NEWPORT        CLOUDY    84  74  72 E5        30.05F HX  91
WALNUT RIDGE   MOSUNNY   88  70  55 SE8       30.04S HX  92
BLYTHEVILLE    MOSUNNY   89  71  55 E6        30.05F HX  95
$$

ARZ022-023-033-042-044-020000-
CENTRAL ARKANSAS

CITY           SKY/WX    TMP DP  RH WIND       PRES   REMARKS
LITTLE ROCK    PTSUNNY   91  66  43 S6        30.03S HX  93
N LITTLE ROCK  PTSUNNY   89  67  46 S6        30.03S HX  92
JACKSONVILLE   CLOUDY    90  65  43 SE3       30.03S HX  92
SEARCY         CLOUDY    89  72  56 S5        30.05S HX  96
HOT SPRINGS    MOSUNNY   88  65  46 CALM      30.04F HX  90
RUSSELLVILLE   SUNNY     90  60  36 VRB5      30.02S HX  89
$$

ARZ036-020000-
EAST ARKANSAS

CITY           SKY/WX    TMP DP  RH WIND       PRES   REMARKS
WEST MEMPHIS   CLOUDY    87  69  54 CALM      30.04R HX  91
$$

ARZ050-053-066-070-073-020000-
SOUTHWEST ARKANSAS

CITY           SKY/WX    TMP DP  RH WIND       PRES   REMARKS
ARKADELPHIA    FAIR      91  67  45 S6        30.03S HX  94
CAMDEN         CLOUDY    86  68  54 CALM      30.02F HX  89
TEXARKANA      MOSUNNY   90  68  48 S8        30.02F HX  94
EL DORADO      PTSUNNY   87  67  51 CALM      30.03F HX  90
DE QUEEN       MOSUNNY   90  68  48 SE9       29.99F HX  94
$$

ARZ056-057-069-020000-
SOUTHEAST ARKANSAS

CITY           SKY/WX    TMP DP  RH WIND       PRES   REMARKS
PINE BLUFF     CLOUDY    89  65  44 SW5       30.03S HX  91
STUTTGART      CLOUDY    90  66  45 E5        30.03F HX  92
MONTICELLO     CLOUDY    90  67  46 CALM      30.03S HX  93

$$





USA.gov is the U.S. government's official web portal to all federal, state and local government web resources and services.